{"data":{"norad_id":37210,"epoch":"2026-09-20T05:54:29.344608Z","epoch_age_seconds":36262,"freshness":"FRESH","line1":"1 37210U 10057A   26263.24617297 -.00000115  00000+0  00000+0 0  9999","line2":"2 37210   3.8775  68.2621 0007961 179.4623   0.0191  1.00271353 58247","mean_motion":1.00271353,"eccentricity":0.0007961,"inclination_deg":3.8775,"raan_deg":68.2621,"arg_perigee_deg":179.4623,"mean_anomaly_deg":0.0191,"bstar":0,"rev_number":5824,"period_min":1436.103091179,"perigee_km":35753.148627381,"apogee_km":35820.283506434,"semimajor_km":42164.853066908,"source":"CELESTRAK","updated_at":"2026-09-20T09:00:46.670602Z"}}